WB4FAY-4 Weather Reports


Display with metric or nautical units.
time (UTC)temp
F
wind
direction
speed
MPH
gust
MPH
rain 1hr
in
rain 24hr
in
rain mn
in
humidity
%
barometer
mb
20260510201517 79 323 0.0 2.0 0.00 0.00 0.00 64 1017.2
20260510201016 79 318 2.0 3.0 0.00 0.00 0.00 61 1017.2
20260510200517 79 222 2.0 4.0 0.00 0.00 0.00 61 1017.3
20260510200017 79 110 1.0 4.0 0.00 0.00 0.00 61 1017.2
20260510195517 78 93 0.0 4.0 0.00 0.00 0.00 62 1017.3
20260510195017 78 106 2.0 5.0 0.00 0.00 0.00 62 1017.3
20260510194517 78 89 3.0 5.0 0.00 0.00 0.00 62 1017.3
20260510194018 78 56 2.0 4.0 0.00 0.00 0.00 64 1017.4
20260510193517 77 167 1.0 3.0 0.00 0.00 0.00 66 1017.4
20260510193016 77 264 1.0 3.0 0.00 0.00 0.00 66 1017.5
20260510192517 77 282 3.0 6.0 0.00 0.00 0.00 66 1017.5
20260510192018 77 230 5.0 6.0 0.00 0.00 0.00 66 1017.5
20260510191517 77 219 0.0 4.0 0.00 0.00 0.00 66 1017.5
20260510191017 77 275 3.0 2.0 0.00 0.00 0.00 67 1017.5
20260510190517 77 112 0.0 2.0 0.00 0.00 0.00 66 1017.5
20260510190017 77 100 0.0 3.0 0.00 0.00 0.00 67 1017.7
20260510185517 76 76 1.0 4.0 0.00 0.00 0.00 67 1017.8
20260510185017 76 114 2.0 5.0 0.00 0.00 0.00 68 1017.9
20260510184517 76 88 1.0 6.0 0.00 0.00 0.00 69 1017.9
20260510184017 76 203 1.0 5.0 0.00 0.00 0.00 70 1017.9
20260510183517 76 199 0.0 5.0 0.00 0.00 0.00 67 1018.0
20260510183017 76 232 0.0 6.0 0.00 0.00 0.00 68 1017.9
20260510182517 76 199 0.0 4.0 0.00 0.00 0.00 69 1017.9
20260510182017 76 80 2.0 5.0 0.00 0.00 0.00 69 1018.0
20260510181517 75 69 0.0 4.0 0.00 0.00 0.00 70 1018.0
20260510181017 75 158 1.0 5.0 0.00 0.00 0.00 71 1018.0
20260510180517 75 141 0.0 4.0 0.00 0.00 0.00 71 1018.1
20260510180017 74 56 3.0 4.0 0.00 0.00 0.00 73 1018.1
20260510175518 74 268 2.0 4.0 0.00 0.00 0.00 74 1018.2
20260510175017 73 196 3.0 5.0 0.00 0.00 0.00 74 1018.3
20260510174517 73 186 2.0 5.0 0.00 0.00 0.00 75 1018.4
20260510174017 73 233 1.0 6.0 0.00 0.00 0.00 76 1018.5
20260510173522 73 208 3.0 6.0 0.00 0.00 0.00 77 1018.6
20260510173017 73 72 0.0 4.0 0.00 0.00 0.00 78 1018.7
20260510172517 73 86 1.0 6.0 0.00 0.00 0.00 77 1018.7
20260510172016 72 24 3.0 3.0 0.00 0.00 0.00 79 1018.7
20260510171517 72 209 1.0 4.0 0.00 0.00 0.00 79 1018.8
20260510171018 72 64 1.0 2.0 0.00 0.00 0.00 79 1018.9
20260510170517 72 215 0.0 1.0 0.00 0.00 0.00 79 1018.9
20260510170017 72 0 0.0 0.0 0.00 0.00 0.00 78 1019.0
20260510165517 72 0 0.0 0.0 0.00 0.00 0.00 78 1019.1
20260510165017 72 0 0.0 0.0 0.00 0.00 0.00 80 1019.1
20260510164517 72 0 0.0 0.0 0.00 0.00 0.00 80 1019.1
20260510164017 72 0 0.0 0.0 0.00 0.00 0.00 81 1019.1
20260510163517 71 0 0.0 0.0 0.00 0.00 0.00 81 1019.0
20260510163017 71 0 0.0 0.0 0.00 0.00 0.00 81 1019.0
20260510162517 71 213 0.0 1.0 0.00 0.00 0.00 81 1018.9
20260510162017 71 90 0.0 2.0 0.00 0.00 0.00 82 1018.9
20260510161517 71 0 0.0 0.0 0.00 0.00 0.00 83 1018.9
20260510161017 71 90 0.0 2.0 0.00 0.00 0.00 83 1018.9
20260510160517 71 90 2.0 4.0 0.00 0.00 0.00 83 1018.9
20260510160017 70 90 3.0 3.0 0.00 0.00 0.00 84 1018.9
20260510155517 70 92 1.0 3.0 0.00 0.00 0.00 85 1019.0
20260510155017 70 92 2.0 5.0 0.00 0.00 0.00 85 1019.0
20260510154517 70 93 3.0 2.0 0.00 0.00 0.00 86 1018.9
20260510154017 69 90 0.0 4.0 0.00 0.00 0.00 87 1019.0
20260510153517 69 95 1.0 3.0 0.00 0.00 0.00 88 1019.0
20260510153017 69 119 2.0 1.0 0.00 0.00 0.00 88 1019.0
20260510152518 69 54 0.0 2.0 0.00 0.00 0.00 89 1019.0
20260510152017 68 44 1.0 2.0 0.00 0.00 0.00 90 1019.0
20260510151517 68 13 0.0 0.0 0.00 0.00 0.00 92 1018.9
20260510151017 68 337 0.0 3.0 0.00 0.00 0.00 93 1018.9
20260510150517 68 357 1.0 3.0 0.00 0.00 0.00 94 1019.0
20260510150017 68 62 1.0 2.0 0.00 0.00 0.00 95 1019.0
20260510145517 67 65 0.0 2.0 0.00 0.00 0.00 95 1019.0
20260510145017 67 72 0.0 2.0 0.00 0.00 0.00 96 1018.9
20260510144517 67 97 1.0 3.0 0.00 0.00 0.00 96 1019.0
20260510144017 67 104 0.0 3.0 0.00 0.00 0.00 96 1019.0
20260510143517 66 89 2.0 3.0 0.00 0.00 0.00 96 1019.0
20260510143017 66 0 0.0 0.0 0.00 0.00 0.00 96 1018.9
20260510142518 66 0 0.0 0.0 0.00 0.00 0.00 96 1019.0
20260510142017 66 97 0.0 3.0 0.00 0.00 0.00 97 1019.1
20260510141517 66 79 1.0 4.0 0.00 0.00 0.00 97 1019.1
20260510141018 66 75 0.0 1.0 0.00 0.00 0.00 97 1019.1
20260510140517 66 93 1.0 5.0 0.00 0.00 0.00 97 1019.0
20260510140017 66 89 3.0 4.0 0.00 0.00 0.00 97 1019.0
20260510135517 66 0 0.0 0.0 0.00 0.00 0.00 97 1019.0
20260510135017 66 0 0.0 0.0 0.00 0.00 0.00 97 1018.9
20260510134517 65 59 0.0 2.0 0.00 0.00 0.00 97 1018.9
20260510134017 66 28 0.0 1.0 0.00 0.00 0.00 97 1018.9
20260510133517 65 0 0.0 0.0 0.00 0.00 0.00 97 1018.9
20260510133017 65 89 0.0 1.0 0.00 0.00 0.00 97 1018.9
20260510132517 66 80 1.0 2.0 0.00 0.00 0.00 97 1018.9
20260510132017 66 93 2.0 3.0 0.00 0.00 0.00 97 1018.8
20260510131517 66 0 0.0 0.0 0.00 0.00 0.00 97 1018.7
20260510131017 65 23 0.0 0.0 0.00 0.00 0.00 97 1018.6
20260510130518 65 0 0.0 0.0 0.00 0.00 0.00 97 1018.5
20260510130017 65 0 0.0 0.0 0.00 0.00 0.00 97 1018.4
20260510125517 65 0 0.0 0.0 0.00 0.00 0.00 97 1018.5
20260510125017 65 130 0.0 1.0 0.00 0.00 0.00 97 1018.6
20260510124517 65 0 0.0 0.0 0.00 0.00 0.00 97 1018.5
20260510124017 65 90 0.0 2.0 0.00 0.00 0.00 97 1018.4
20260510123517 65 0 2.0 0.0 0.00 0.00 0.00 97 1018.3
20260510123017 65 0 0.0 0.0 0.00 0.00 0.00 97 1018.2
20260510122517 65 0 0.0 0.0 0.00 0.00 0.00 97 1018.2
20260510122018 65 0 0.0 0.0 0.00 0.00 0.00 97 1018.2
20260510121517 65 140 0.0 1.0 0.00 0.00 0.00 97 1018.2
20260510121017 65 0 0.0 0.0 0.00 0.00 0.00 97 1018.0
20260510120517 65 0 0.0 0.0 0.00 0.00 0.00 97 1017.8
20260510120017 65 92 0.0 1.0 0.00 0.00 0.00 97 1017.8
20260510115517 65 0 0.0 0.0 0.00 0.00 0.00 97 1017.7
20260510115017 65 100 0.0 3.0 0.00 0.00 0.00 97 1017.6
20260510114517 65 95 3.0 2.0 0.00 0.00 0.00 97 1017.5
20260510114017 65 0 0.0 0.0 0.00 0.00 0.00 97 1017.4
20260510113517 65 64 0.0 2.0 0.00 0.00 0.00 97 1017.2
20260510113017 65 0 0.0 0.0 0.00 0.00 0.00 97 1017.0
20260510112518 65 0 0.0 0.0 0.00 0.00 0.00 97 1016.9
20260510112018 65 0 0.0 0.0 0.00 0.00 0.00 97 1016.8
20260510111517 65 0 0.0 0.0 0.00 0.00 0.00 97 1016.8
20260510111017 65 0 0.0 0.0 0.00 0.00 0.00 97 1016.6
20260510110517 65 0 0.0 0.0 0.00 0.00 0.00 97 1016.5
20260510110017 65 0 0.0 0.0 0.00 0.00 0.00 97 1016.4
20260510105517 65 0 0.0 0.0 0.00 0.00 0.00 97 1016.4
20260510105017 65 0 0.0 0.0 0.00 0.00 0.00 97 1016.4
20260510104517 65 0 0.0 0.0 0.00 0.00 0.00 97 1016.4
20260510104017 65 0 0.0 0.0 0.00 0.00 0.00 97 1016.3
20260510103516 65 0 0.0 0.0 0.00 0.00 0.00 97 1016.2
20260510103017 65 0 0.0 0.0 0.00 0.00 0.00 97 1016.1
20260510102517 65 0 0.0 0.0 0.00 0.00 0.00 97 1016.1
20260510102017 65 0 0.0 0.0 0.00 0.00 0.00 97 1016.0
20260510101517 65 0 0.0 0.0 0.00 0.00 0.00 97 1016.0
20260510101017 65 0 0.0 0.0 0.00 0.00 0.00 97 1015.9
20260510100517 65 0 0.0 0.0 0.00 0.00 0.00 97 1015.9
20260510100017 64 0 0.0 0.0 0.00 0.00 0.00 97 1015.8
20260510095517 65 0 0.0 0.0 0.00 0.00 0.00 97 1015.7
20260510095017 64 0 0.0 0.0 0.00 0.00 0.00 97 1015.7
20260510094517 64 0 0.0 0.0 0.00 0.00 0.00 97 1015.6
20260510094017 64 0 0.0 0.0 0.00 0.00 0.00 97 1015.5
20260510093517 64 0 0.0 0.0 0.00 0.00 0.00 97 1015.4
20260510093017 64 0 0.0 0.0 0.00 0.00 0.00 97 1015.4
20260510092517 64 0 0.0 0.0 0.00 0.00 0.00 97 1015.4
20260510092017 64 0 0.0 0.0 0.00 0.00 0.00 97 1015.3
20260510091517 64 0 0.0 0.0 0.00 0.00 0.00 97 1015.3
20260510091017 64 0 0.0 0.0 0.00 0.00 0.00 97 1015.1
20260510090517 64 83 0.0 2.0 0.00 0.00 0.00 97 1015.1
20260510090017 64 0 0.0 0.0 0.00 0.00 0.00 97 1015.1
20260510085517 64 0 0.0 0.0 0.00 0.00 0.00 97 1015.1
20260510085017 64 0 0.0 0.0 0.00 0.00 0.00 97 1015.0
20260510084517 64 0 0.0 0.0 0.00 0.00 0.00 97 1015.0
20260510084017 64 0 0.0 0.0 0.00 0.00 0.00 97 1014.8
20260510083518 64 0 0.0 0.0 0.00 0.00 0.00 97 1014.8
20260510083017 64 0 0.0 0.0 0.00 0.00 0.00 97 1014.8
20260510082517 64 0 0.0 0.0 0.00 0.00 0.00 97 1014.7
20260510082018 64 0 0.0 0.0 0.00 0.00 0.00 97 1014.8
20260510081517 64 0 0.0 0.0 0.00 0.00 0.00 97 1014.8
20260510081017 64 0 0.0 0.0 0.00 0.00 0.00 97 1014.8
20260510080517 64 0 0.0 0.0 0.00 0.00 0.00 97 1014.8
20260510080017 64 0 0.0 0.0 0.00 0.00 0.00 97 1014.9
20260510075517 64 0 0.0 0.0 0.00 0.00 0.00 97 1014.8
20260510075017 63 0 0.0 0.0 0.00 0.00 0.00 96 1014.7
20260510074517 64 0 0.0 0.0 0.00 0.00 0.00 96 1014.7
20260510074017 64 0 0.0 0.0 0.00 0.00 0.00 96 1014.7
20260510073517 63 0 0.0 0.0 0.00 0.00 0.00 96 1014.7
20260510073017 64 0 0.0 0.0 0.00 0.00 0.00 96 1014.7
20260510072518 64 0 0.0 0.0 0.00 0.00 0.00 96 1014.7
20260510072017 64 0 0.0 0.0 0.00 0.00 0.00 96 1014.7
20260510071517 64 0 0.0 0.0 0.00 0.00 0.00 96 1014.8
20260510071017 64 0 0.0 0.0 0.00 0.00 0.00 96 1014.8
20260510070517 64 0 0.0 0.0 0.00 0.00 0.00 96 1014.8
20260510070017 64 0 0.0 0.0 0.00 0.00 0.00 96 1014.8
20260510065517 64 0 0.0 0.0 0.00 0.00 0.00 96 1014.9
20260510065017 64 0 0.0 0.0 0.00 0.00 0.00 96 1015.0
20260510064517 64 0 0.0 0.0 0.00 0.00 0.00 96 1015.0
20260510064017 64 0 0.0 0.0 0.00 0.00 0.00 96 1015.0
20260510063517 64 0 0.0 0.0 0.00 0.00 0.00 96 1015.0
20260510063017 64 0 0.0 0.0 0.00 0.00 0.00 96 1015.1
20260510062517 64 0 0.0 0.0 0.00 0.00 0.00 96 1015.2
20260510062017 64 0 0.0 0.0 0.00 0.00 0.00 96 1015.2
20260510061517 64 0 0.0 0.0 0.00 0.00 0.00 96 1015.1
20260510061017 64 0 0.0 0.0 0.00 0.00 0.00 96 1015.2
20260510060517 64 0 0.0 0.0 0.00 0.00 0.00 96 1015.2
20260510060017 64 0 0.0 0.0 0.00 0.00 0.00 96 1015.1
20260510055517 64 0 0.0 0.0 0.00 0.00 0.00 96 1015.0
20260510055017 64 0 0.0 0.0 0.00 0.00 0.00 96 1015.0
20260510054517 64 0 0.0 0.0 0.00 0.00 0.00 96 1015.1
20260510054017 64 0 0.0 0.0 0.00 0.00 0.00 96 1015.2
20260510053517 64 0 0.0 0.0 0.00 0.00 0.00 96 1015.2
20260510053017 64 0 0.0 0.0 0.00 0.00 0.00 96 1015.2
20260510052517 64 0 0.0 0.0 0.00 0.00 0.00 96 1015.3
20260510052017 65 0 0.0 0.0 0.00 0.00 0.00 96 1015.3
20260510051517 65 0 0.0 0.0 0.00 0.00 0.00 96 1015.3
20260510051017 65 0 0.0 0.0 0.00 0.00 0.00 96 1015.4
20260510050517 65 0 0.0 0.0 0.00 0.00 0.00 96 1015.4
20260510050017 65 0 0.0 0.0 0.00 0.00 0.00 95 1015.3
20260510045518 65 0 0.0 0.0 0.00 0.00 0.00 95 1015.3
20260510045017 65 0 0.0 0.0 0.00 0.00 0.00 95 1015.3
20260510044517 65 0 0.0 0.0 0.00 0.00 0.00 95 1015.3
20260510044017 65 0 0.0 0.0 0.00 0.00 0.00 95 1015.3
20260510043517 65 0 0.0 0.0 0.00 0.00 0.00 95 1015.3
20260510043018 65 0 0.0 0.0 0.00 0.00 0.00 95 1015.3
20260510042517 65 0 0.0 0.0 0.00 0.00 0.00 95 1015.3
20260510042017 65 0 0.0 0.0 0.00 0.00 0.00 95 1015.4
20260510041517 65 0 0.0 0.0 0.00 0.00 0.00 95 1015.4
20260510041017 66 0 0.0 0.0 0.00 0.00 0.00 95 1015.4
20260510040517 66 0 0.0 0.0 0.00 0.00 0.00 95 1015.4
20260510040017 66 0 0.0 0.0 0.00 0.00 0.00 95 1015.4
20260510035517 66 0 0.0 0.0 0.00 0.00 0.00 94 1015.3
20260510035017 66 0 0.0 0.0 0.00 0.00 0.00 94 1015.3
20260510034517 66 0 0.0 0.0 0.00 0.00 0.00 94 1015.4
20260510034017 66 0 0.0 0.0 0.00 0.00 0.00 94 1015.3
20260510033517 66 0 0.0 0.0 0.00 0.00 0.00 94 1015.3
20260510033017 66 0 0.0 0.0 0.00 0.00 0.00 94 1015.5
20260510032518 66 0 0.0 0.0 0.00 0.00 0.00 93 1015.5
20260510032017 67 0 0.0 0.0 0.00 0.00 0.00 93 1015.5
20260510031517 67 0 0.0 0.0 0.00 0.00 0.00 93 1015.4
20260510031017 67 0 0.0 0.0 0.00 0.00 0.00 93 1015.4
20260510030518 67 0 0.0 0.0 0.00 0.00 0.00 92 1015.3
20260510030017 67 0 0.0 0.0 0.00 0.00 0.00 92 1015.2
20260510025517 67 0 0.0 0.0 0.00 0.00 0.00 92 1015.3
20260510025017 67 0 0.0 0.0 0.00 0.00 0.00 92 1015.3
20260510024516 67 0 0.0 0.0 0.00 0.00 0.00 92 1015.3
20260510024017 67 0 0.0 0.0 0.00 0.00 0.00 91 1015.2
20260510023517 68 0 0.0 0.0 0.00 0.00 0.00 91 1015.1
20260510023017 68 0 0.0 0.0 0.00 0.00 0.00 90 1015.1
20260510022517 68 0 0.0 0.0 0.00 0.00 0.00 90 1015.0
20260510022017 68 0 0.0 0.0 0.00 0.00 0.00 90 1015.0
20260510021517 68 0 0.0 0.0 0.00 0.00 0.00 90 1014.9
20260510021023 68 0 0.0 0.0 0.00 0.00 0.00 89 1014.8
20260510020517 68 0 0.0 0.0 0.00 0.00 0.00 89 1014.7
20260510020017 68 0 0.0 0.0 0.00 0.00 0.00 89 1014.6
20260510015517 68 0 0.0 0.0 0.00 0.00 0.00 89 1014.6
20260510015017 68 0 0.0 0.0 0.00 0.00 0.00 88 1014.5
20260510014517 68 0 0.0 0.0 0.00 0.00 0.00 88 1014.4
20260510014016 69 0 0.0 0.0 0.00 0.00 0.00 88 1014.3
20260510013517 69 0 0.0 0.0 0.00 0.00 0.00 87 1014.2
20260510013017 69 0 0.0 0.0 0.00 0.00 0.00 87 1014.1
20260510012522 69 0 0.0 0.0 0.00 0.00 0.00 87 1014.0
20260510012017 69 0 0.0 0.0 0.00 0.00 0.00 86 1013.9
20260510011517 69 0 0.0 0.0 0.00 0.00 0.00 86 1013.9
20260510011018 69 0 0.0 0.0 0.00 0.00 0.00 86 1013.7
20260510010518 69 0 0.0 0.0 0.00 0.00 0.00 85 1013.7
20260510010017 69 0 0.0 0.0 0.00 0.00 0.00 85 1013.7
20260510005522 69 0 0.0 0.0 0.00 0.00 0.00 85 1013.5
20260510005018 69 0 0.0 0.0 0.00 0.00 0.00 85 1013.5
20260510004517 70 0 0.0 0.0 0.00 0.00 0.00 84 1013.5
20260510004018 70 0 0.0 0.0 0.00 0.00 0.00 84 1013.5
20260510003517 70 0 0.0 0.0 0.00 0.00 0.00 84 1013.5
20260510003018 70 0 0.0 0.0 0.00 0.00 0.00 83 1013.5
20260510002517 70 0 0.0 0.0 0.00 0.00 0.00 83 1013.5
20260510002017 70 0 0.0 0.0 0.00 0.00 0.00 82 1013.4
20260510001517 71 0 0.0 0.0 0.00 0.00 0.00 82 1013.3
20260510001017 71 0 0.0 0.0 0.00 0.00 0.00 82 1013.4
20260510000517 71 0 0.0 0.0 0.00 0.00 0.00 81 1013.2
20260510000017 71 0 0.0 0.0 0.00 0.00 0.00 80 1013.1
20260509235517 71 0 0.0 0.0 0.00 0.00 0.00 80 1013.0
20260509235018 71 0 0.0 0.0 0.00 0.00 0.00 79 1012.9
20260509234517 71 0 0.0 0.0 0.00 0.00 0.00 79 1012.9
20260509234018 71 0 0.0 0.0 0.00 0.00 0.00 79 1012.8
20260509233517 71 0 0.0 0.0 0.00 0.00 0.00 78 1012.9
20260509233017 71 0 0.0 0.0 0.00 0.00 0.00 78 1012.7
20260509232518 72 0 0.0 0.0 0.00 0.00 0.00 78 1012.7
20260509232017 72 0 0.0 0.0 0.00 0.00 0.00 78 1012.7
20260509231517 72 0 0.0 0.0 0.00 0.00 0.00 78 1012.7
20260509231017 72 0 0.0 0.0 0.00 0.00 0.00 78 1012.8
20260509230517 72 0 0.0 0.0 0.00 0.00 0.00 78 1012.6
20260509230017 72 0 0.0 0.0 0.00 0.00 0.00 77 1012.6
20260509225518 73 0 0.0 0.0 0.00 0.00 0.00 77 1012.5
20260509225017 73 0 0.0 0.0 0.00 0.00 0.00 77 1012.5
20260509224518 73 0 0.0 0.0 0.00 0.00 0.00 76 1012.4
20260509224017 73 0 0.0 0.0 0.00 0.00 0.00 76 1012.4
20260509223517 73 0 0.0 0.0 0.00 0.00 0.00 75 1012.4
20260509223017 73 0 0.0 0.0 0.00 0.00 0.00 75 1012.4
20260509222517 73 0 0.0 0.0 0.00 0.00 0.00 75 1012.2
20260509222017 73 0 0.0 0.0 0.00 0.00 0.00 74 1012.3
20260509221517 73 0 0.0 0.0 0.00 0.00 0.00 74 1012.2
20260509221018 73 0 0.0 0.0 0.00 0.00 0.00 74 1012.1
20260509220517 74 189 0.0 2.0 0.00 0.00 0.00 73 1012.3
20260509220017 74 0 0.0 0.0 0.00 0.00 0.00 74 1012.4
20260509215518 74 82 0.0 2.0 0.00 0.00 0.00 72 1012.1
20260509215017 74 92 0.0 3.0 0.00 0.00 0.00 72 1012.1
20260509214517 74 268 1.0 3.0 0.00 0.00 0.00 72 1012.2
20260509214017 74 268 0.0 2.0 0.00 0.00 0.00 73 1012.3
20260509213517 74 195 2.0 3.0 0.00 0.00 0.00 72 1012.2
20260509213017 75 195 1.0 4.0 0.00 0.00 0.00 70 1012.2
20260509212518 75 192 2.0 4.0 0.00 0.00 0.00 69 1012.0
20260509212017 75 186 1.0 2.0 0.00 0.00 0.00 69 1012.0
20260509211517 76 0 0.0 0.0 0.00 0.00 0.00 68 1011.8
20260509211017 76 196 0.0 5.0 0.00 0.00 0.00 67 1012.0
20260509210517 75 195 5.0 2.0 0.00 0.00 0.00 67 1012.0
20260509210017 75 215 1.0 1.0 0.00 0.00 0.00 67 1012.0
20260509205517 75 226 0.0 2.0 0.00 0.00 0.00 66 1012.0
20260509205017 75 212 0.0 1.0 0.00 0.00 0.00 67 1011.6
20260509204517 75 270 0.0 1.0 0.00 0.00 0.00 67 1011.8
20260509204017 75 219 0.0 1.0 0.00 0.00 0.00 66 1012.0
20260509203518 75 196 0.0 1.0 0.00 0.00 0.00 66 1012.0
20260509203017 75 213 1.0 2.0 0.00 0.00 0.00 67 1012.1
20260509202517 75 212 2.0 2.0 0.00 0.00 0.00 66 1012.1
20260509202017 75 230 0.0 3.0 0.00 0.00 0.00 66 1012.1